Time,TemperatureF,DewpointF,PressureIn,WindDirection,WindDirectionDegrees,WindSpeedMPH,WindSpeedGustMPH,Humidity,HourlyPrecipIn,Conditions,Clouds,dailyrainin,SoftwareType,DateUTC
2013-11-25 00:00:00,22.5,4.4,30.48,NW,313,0.0,0.0,45,0.00,,SKC,0.00,VWS V14.01,2013-11-25 05:00:00,
2013-11-25 00:01:00,22.5,3.9,30.48,NW,313,0.0,0.0,44,0.00,,SKC,0.00,VWS V14.01,2013-11-25 05:01:00,
2013-11-25 00:02:00,22.5,3.4,30.48,NW,313,0.0,0.0,43,0.00,,SKC,0.00,VWS V14.01,2013-11-25 05:02:00,
2013-11-25 00:07:00,22.5,3.9,30.48,NW,313,0.0,0.0,44,0.00,,SKC,0.00,VWS V14.01,2013-11-25 05:07:00,
2013-11-25 00:12:00,22.4,3.3,30.48,NW,313,3.0,3.0,43,0.00,,SKC,0.00,VWS V14.01,2013-11-25 05:12:00,
2013-11-25 00:17:00,22.4,3.8,30.49,NW,313,0.0,3.0,44,0.00,,SKC,0.00,VWS V14.01,2013-11-25 05:17:00,
2013-11-25 00:22:00,22.5,2.4,30.49,NW,313,0.0,0.0,41,0.00,,SKC,0.00,VWS V14.01,2013-11-25 05:22:00,
2013-11-25 00:27:00,22.7,2.5,30.49,NW,313,0.0,0.0,41,0.00,,SKC,0.00,VWS V14.01,2013-11-25 05:27:00,
2013-11-25 00:32:00,22.7,5.5,30.49,NW,313,0.0,0.0,47,0.00,,SKC,0.00,VWS V14.01,2013-11-25 05:32:00,
2013-11-25 00:37:00,22.5,4.4,30.49,NW,313,0.0,0.0,45,0.00,,SKC,0.00,VWS V14.01,2013-11-25 05:37:00,
2013-11-25 00:42:00,22.2,5.1,30.49,NW,313,0.0,3.0,47,0.00,,SKC,0.00,VWS V14.01,2013-11-25 05:42:00,
2013-11-25 00:47:00,22.1,5.0,30.49,NW,313,0.0,3.0,47,0.00,,SKC,0.00,VWS V14.01,2013-11-25 05:47:00,
2013-11-25 00:52:00,22.1,4.5,30.49,NW,313,3.0,3.0,46,0.00,,SKC,0.00,VWS V14.01,2013-11-25 05:52:00,
2013-11-25 00:57:00,22.1,4.5,30.49,NW,313,0.0,4.0,46,0.00,,SKC,0.00,VWS V14.01,2013-11-25 05:57:00,
2013-11-25 01:01:00,22.2,3.6,30.49,NW,313,0.0,2.0,44,0.00,,SKC,0.00,VWS V14.01,2013-11-25 06:01:00,
2013-11-25 01:06:00,22.4,4.8,30.49,NW,313,0.0,1.0,46,0.00,,SKC,0.00,VWS V14.01,2013-11-25 06:06:00,
2013-11-25 01:11:00,22.4,2.8,30.49,NW,313,0.0,3.0,42,0.00,,SKC,0.00,VWS V14.01,2013-11-25 06:11:00,
2013-11-25 01:16:00,22.5,1.8,30.48,NW,313,0.0,0.0,40,0.00,,SKC,0.00,VWS V14.01,2013-11-25 06:16:00,
2013-11-25 01:21:00,22.4,4.8,30.48,NW,313,0.0,0.0,46,0.00,,SKC,0.00,VWS V14.01,2013-11-25 06:21:00,
2013-11-25 01:26:00,22.2,6.4,30.48,NW,313,0.0,0.0,50,0.00,,SKC,0.00,VWS V14.01,2013-11-25 06:26:00,
2013-11-25 01:31:00,22.1,5.4,30.48,NW,313,0.0,0.0,48,0.00,,SKC,0.00,VWS V14.01,2013-11-25 06:31:00,
2013-11-25 01:36:00,21.9,5.2,30.48,NW,313,0.0,0.0,48,0.00,,SKC,0.00,VWS V14.01,2013-11-25 06:36:00,
2013-11-25 01:41:00,21.8,6.0,30.48,NW,313,0.0,0.0,50,0.00,,SKC,0.00,VWS V14.01,2013-11-25 06:41:00,
2013-11-25 01:46:00,21.6,5.4,30.48,NW,313,0.0,0.0,49,0.00,,SKC,0.00,VWS V14.01,2013-11-25 06:46:00,
2013-11-25 01:51:00,21.4,5.2,30.48,NW,313,0.0,0.0,49,0.00,,SKC,0.00,VWS V14.01,2013-11-25 06:51:00,
2013-11-25 01:56:00,21.3,4.7,30.48,NW,313,2.0,2.0,48,0.00,,SKC,0.00,VWS V14.01,2013-11-25 06:56:00,
2013-11-25 02:01:00,21.4,5.7,30.48,NW,313,0.0,3.0,50,0.00,,SKC,0.00,VWS V14.01,2013-11-25 07:01:00,
2013-11-25 02:06:00,21.3,4.7,30.48,NW,313,0.0,0.0,48,0.00,,SKC,0.00,VWS V14.01,2013-11-25 07:06:00,
2013-11-25 02:12:00,21.1,5.4,30.48,NW,313,0.0,0.0,50,0.00,,SKC,0.00,VWS V14.01,2013-11-25 07:12:00,
2013-11-25 02:17:00,21.3,4.2,30.48,NW,313,0.0,0.0,47,0.00,,SKC,0.00,VWS V14.01,2013-11-25 07:17:00,
2013-11-25 02:22:00,21.3,4.7,30.48,NW,313,0.0,0.0,48,0.00,,SKC,0.00,VWS V14.01,2013-11-25 07:22:00,
2013-11-25 02:27:00,21.0,4.8,30.48,NW,313,0.0,3.0,49,0.00,,SKC,0.00,VWS V14.01,2013-11-25 07:27:00,
2013-11-25 02:32:00,21.0,3.9,30.48,NW,313,0.0,2.0,47,0.00,,SKC,0.00,VWS V14.01,2013-11-25 07:32:00,
2013-11-25 02:37:00,20.8,4.7,30.48,NW,313,0.0,0.0,49,0.00,,SKC,0.00,VWS V14.01,2013-11-25 07:37:00,
2013-11-25 02:42:00,20.8,5.5,30.48,NW,313,0.0,0.0,51,0.00,,SKC,0.00,VWS V14.01,2013-11-25 07:42:00,
2013-11-25 02:47:00,20.6,4.9,30.47,NW,313,0.0,0.0,50,0.00,,SKC,0.00,VWS V14.01,2013-11-25 07:47:00,
2013-11-25 02:52:00,20.5,3.9,30.47,NW,313,0.0,1.0,48,0.00,,SKC,0.00,VWS V14.01,2013-11-25 07:52:00,
2013-11-25 02:57:00,20.6,5.3,30.47,NW,313,0.0,0.0,51,0.00,,SKC,0.00,VWS V14.01,2013-11-25 07:57:00,
2013-11-25 03:02:00,20.5,4.4,30.47,NW,313,0.0,0.0,49,0.00,,SKC,0.00,VWS V14.01,2013-11-25 08:02:00,
2013-11-25 03:07:00,20.5,4.8,30.47,NW,313,0.0,0.0,50,0.00,,SKC,0.00,VWS V14.01,2013-11-25 08:07:00,
2013-11-25 03:12:00,20.5,3.9,30.47,NW,313,0.0,0.0,48,0.00,,SKC,0.00,VWS V14.01,2013-11-25 08:12:00,
2013-11-25 03:17:00,20.6,4.0,30.48,NW,313,0.0,0.0,48,0.00,,SKC,0.00,VWS V14.01,2013-11-25 08:17:00,
2013-11-25 03:22:00,20.8,4.2,30.48,NW,313,0.0,0.0,48,0.00,,SKC,0.00,VWS V14.01,2013-11-25 08:22:00,
2013-11-25 03:27:00,21.0,3.9,30.48,NW,313,0.0,0.0,47,0.00,,SKC,0.00,VWS V14.01,2013-11-25 08:27:00,
2013-11-25 03:32:00,21.1,3.6,30.47,NW,313,0.0,0.0,46,0.00,,SKC,0.00,VWS V14.01,2013-11-25 08:32:00,
2013-11-25 03:37:00,21.1,4.0,30.47,NW,313,0.0,0.0,47,0.00,,SKC,0.00,VWS V14.01,2013-11-25 08:37:00,
2013-11-25 03:42:00,21.0,6.6,30.47,NW,313,0.0,0.0,53,0.00,,SKC,0.00,VWS V14.01,2013-11-25 08:42:00,
2013-11-25 03:47:00,20.6,7.0,30.47,NW,313,0.0,0.0,55,0.00,,SKC,0.00,VWS V14.01,2013-11-25 08:47:00,
2013-11-25 03:52:00,20.3,6.7,30.47,NW,313,0.0,0.0,55,0.00,,SKC,0.00,VWS V14.01,2013-11-25 08:52:00,
2013-11-25 03:57:00,20.2,8.2,30.47,NW,313,0.0,0.0,59,0.00,,SKC,0.00,VWS V14.01,2013-11-25 08:57:00,
2013-11-25 04:02:00,20.2,7.8,30.47,NW,313,0.0,0.0,58,0.00,,SKC,0.00,VWS V14.01,2013-11-25 09:02:00,
2013-11-25 04:07:00,20.0,7.6,30.47,NW,313,0.0,0.0,58,0.00,,SKC,0.00,VWS V14.01,2013-11-25 09:07:00,
2013-11-25 04:12:00,20.0,8.4,30.47,NW,313,0.0,0.0,60,0.00,,SKC,0.00,VWS V14.01,2013-11-25 09:12:00,
2013-11-25 04:17:00,19.9,7.5,30.47,NW,313,0.0,0.0,58,0.00,,SKC,0.00,VWS V14.01,2013-11-25 09:17:00,
2013-11-25 04:22:00,19.9,7.5,30.47,NW,313,0.0,0.0,58,0.00,,SKC,0.00,VWS V14.01,2013-11-25 09:22:00,
2013-11-25 04:26:00,19.9,7.5,30.47,NW,313,0.0,0.0,58,0.00,,SKC,0.00,VWS V14.01,2013-11-25 09:26:00,
2013-11-25 04:31:00,19.9,7.1,30.49,NW,313,0.0,0.0,57,0.00,,SKC,0.00,VWS V14.01,2013-11-25 09:31:00,
2013-11-25 04:36:00,19.9,7.5,30.49,NW,313,0.0,0.0,58,0.00,,SKC,0.00,VWS V14.01,2013-11-25 09:36:00,
2013-11-25 04:41:00,19.7,7.7,30.49,NW,313,0.0,0.0,59,0.00,,SKC,0.00,VWS V14.01,2013-11-25 09:41:00,
2013-11-25 04:46:00,19.5,7.1,30.49,NW,313,0.0,0.0,58,0.00,,SKC,0.00,VWS V14.01,2013-11-25 09:46:00,
2013-11-25 04:51:00,19.5,6.8,30.49,NW,313,0.0,0.0,57,0.00,,SKC,0.00,VWS V14.01,2013-11-25 09:51:00,
2013-11-25 04:56:00,19.5,6.4,30.49,NW,313,0.0,0.0,56,0.00,,SKC,0.00,VWS V14.01,2013-11-25 09:56:00,
2013-11-25 05:01:00,19.5,6.8,30.49,NW,313,0.0,0.0,57,0.00,,SKC,0.00,VWS V14.01,2013-11-25 10:01:00,
2013-11-25 05:06:00,19.5,6.4,30.49,NW,313,0.0,0.0,56,0.00,,SKC,0.00,VWS V14.01,2013-11-25 10:06:00,
2013-11-25 05:11:00,19.7,7.3,30.49,NW,313,0.0,0.0,58,0.00,,SKC,0.00,VWS V14.01,2013-11-25 10:11:00,
2013-11-25 05:16:00,19.7,7.7,30.49,NW,313,0.0,0.0,59,0.00,,SKC,0.00,VWS V14.01,2013-11-25 10:16:00,
2013-11-25 05:21:00,19.7,8.4,30.49,NW,313,0.0,0.0,61,0.00,,SKC,0.00,VWS V14.01,2013-11-25 10:21:00,
2013-11-25 05:26:00,19.7,8.1,30.49,NW,313,0.0,0.0,60,0.00,,SKC,0.00,VWS V14.01,2013-11-25 10:26:00,
2013-11-25 05:31:00,19.7,8.1,30.50,NW,313,0.0,0.0,60,0.00,,SKC,0.00,VWS V14.01,2013-11-25 10:31:00,
2013-11-25 05:36:00,19.7,8.4,30.50,NW,313,0.0,0.0,61,0.00,,SKC,0.00,VWS V14.01,2013-11-25 10:36:00,
2013-11-25 05:41:00,19.7,7.3,30.50,NW,313,0.0,0.0,58,0.00,,SKC,0.00,VWS V14.01,2013-11-25 10:41:00,
2013-11-25 05:46:00,19.9,7.9,30.50,NW,313,0.0,0.0,59,0.00,,SKC,0.00,VWS V14.01,2013-11-25 10:46:00,
2013-11-25 05:51:00,20.0,7.6,30.50,NW,313,0.0,0.0,58,0.00,,SKC,0.00,VWS V14.01,2013-11-25 10:51:00,
2013-11-25 05:56:00,20.0,8.0,30.50,NW,313,0.0,0.0,59,0.00,,SKC,0.00,VWS V14.01,2013-11-25 10:56:00,
2013-11-25 06:01:00,20.0,8.0,30.50,NW,313,0.0,0.0,59,0.00,,SKC,0.00,VWS V14.01,2013-11-25 11:01:00,
2013-11-25 06:06:00,20.0,8.7,30.50,NW,313,0.0,0.0,61,0.00,,SKC,0.00,VWS V14.01,2013-11-25 11:06:00,
2013-11-25 06:11:00,19.9,8.3,30.50,NW,313,0.0,0.0,60,0.00,,SKC,0.00,VWS V14.01,2013-11-25 11:11:00,
2013-11-25 06:16:00,19.7,8.1,30.49,NW,313,0.0,0.0,60,0.00,,SKC,0.00,VWS V14.01,2013-11-25 11:16:00,
2013-11-25 06:21:00,19.5,8.6,30.49,NW,313,0.0,0.0,62,0.00,,SKC,0.00,VWS V14.01,2013-11-25 11:21:00,
2013-11-25 06:26:00,19.5,9.0,30.49,NW,313,0.0,0.0,63,0.00,,SKC,0.00,VWS V14.01,2013-11-25 11:26:00,
2013-11-25 06:31:00,19.5,9.3,30.50,NW,313,0.0,0.0,64,0.00,,SKC,0.00,VWS V14.01,2013-11-25 11:31:00,
2013-11-25 06:36:00,19.5,8.6,30.50,NW,313,0.0,1.0,62,0.00,,SKC,0.00,VWS V14.01,2013-11-25 11:36:00,
2013-11-25 06:41:00,19.9,10.4,30.50,NW,313,0.0,0.0,66,0.00,,SKC,0.00,VWS V14.01,2013-11-25 11:41:00,
2013-11-25 06:46:00,19.9,10.7,30.50,NW,313,0.0,0.0,67,0.00,,SKC,0.00,VWS V14.01,2013-11-25 11:46:00,
2013-11-25 06:51:00,19.9,10.4,30.50,NW,313,0.0,0.0,66,0.00,,SKC,0.00,VWS V14.01,2013-11-25 11:51:00,
2013-11-25 06:56:00,19.9,10.1,30.50,NW,313,0.0,0.0,65,0.00,,SKC,0.00,VWS V14.01,2013-11-25 11:56:00,
2013-11-25 07:01:00,19.9,10.1,30.50,NW,313,0.0,0.0,65,0.00,,SKC,0.00,VWS V14.01,2013-11-25 12:01:00,
2013-11-25 07:06:00,19.9,11.1,30.50,NW,313,0.0,0.0,68,0.00,,SKC,0.00,VWS V14.01,2013-11-25 12:06:00,
2013-11-25 07:11:00,19.5,11.0,30.50,NW,313,0.0,0.0,69,0.00,,SKC,0.00,VWS V14.01,2013-11-25 12:11:00,
2013-11-25 07:16:00,19.4,10.2,30.51,NW,313,0.0,0.0,67,0.00,,SKC,0.00,VWS V14.01,2013-11-25 12:16:00,
2013-11-25 07:21:00,19.4,10.6,30.51,NW,313,0.0,0.0,68,0.00,,SKC,0.00,VWS V14.01,2013-11-25 12:21:00,
2013-11-25 07:26:00,19.5,11.0,30.51,NW,313,0.0,0.0,69,0.00,,SKC,0.00,VWS V14.01,2013-11-25 12:26:00,
2013-11-25 07:31:00,19.7,10.2,30.51,NW,313,0.0,1.0,66,0.00,,SKC,0.00,VWS V14.01,2013-11-25 12:31:00,
2013-11-25 07:36:00,20.3,11.1,30.51,NW,313,0.0,0.0,67,0.00,,SKC,0.00,VWS V14.01,2013-11-25 12:36:00,
2013-11-25 07:41:00,21.1,12.5,30.51,NW,313,0.0,0.0,69,0.00,,SKC,0.00,VWS V14.01,2013-11-25 12:41:00,
2013-11-25 07:46:00,21.9,12.6,30.51,NW,313,0.0,0.0,67,0.00,,SKC,0.00,VWS V14.01,2013-11-25 12:46:00,
2013-11-25 07:51:00,22.7,13.1,30.51,NW,313,0.0,0.0,66,0.00,,SKC,0.00,VWS V14.01,2013-11-25 12:51:00,
2013-11-25 07:56:00,23.2,11.8,30.51,NW,313,0.0,0.0,61,0.00,,SKC,0.00,VWS V14.01,2013-11-25 12:56:00,
2013-11-25 08:01:00,23.5,12.0,30.50,NW,313,0.0,1.0,61,0.00,,SKC,0.00,VWS V14.01,2013-11-25 13:01:00,
2013-11-25 08:06:00,23.5,12.0,30.50,NW,313,0.0,0.0,61,0.00,,SKC,0.00,VWS V14.01,2013-11-25 13:06:00,
2013-11-25 08:11:00,23.6,12.9,30.50,NW,313,0.0,0.0,63,0.00,,SKC,0.00,VWS V14.01,2013-11-25 13:11:00,
2013-11-25 08:16:00,23.9,12.4,30.51,NW,313,0.0,1.0,61,0.00,,SKC,0.00,VWS V14.01,2013-11-25 13:16:00,
2013-11-25 08:21:00,24.5,11.9,30.51,NW,313,0.0,0.0,58,0.00,,SKC,0.00,VWS V14.01,2013-11-25 13:21:00,
2013-11-25 08:26:00,24.8,12.1,30.51,NW,313,0.0,1.0,58,0.00,,SKC,0.00,VWS V14.01,2013-11-25 13:26:00,
2013-11-25 08:31:00,25.1,11.6,30.51,NW,313,0.0,1.0,56,0.00,,SKC,0.00,VWS V14.01,2013-11-25 13:31:00,
2013-11-25 08:36:00,25.4,11.5,30.51,NW,313,0.0,0.0,55,0.00,,SKC,0.00,VWS V14.01,2013-11-25 13:36:00,
2013-11-25 08:41:00,25.8,12.3,30.51,NW,313,0.0,0.0,56,0.00,,SKC,0.00,VWS V14.01,2013-11-25 13:41:00,
2013-11-25 08:46:00,26.1,10.0,30.50,NW,313,0.0,0.0,50,0.00,,SKC,0.00,VWS V14.01,2013-11-25 13:46:00,
2013-11-25 08:51:00,26.6,10.0,30.50,NW,313,0.0,0.0,49,0.00,,SKC,0.00,VWS V14.01,2013-11-25 13:51:00,
2013-11-25 08:56:00,27.2,8.2,30.50,NW,313,2.0,2.0,44,0.00,,SKC,0.00,VWS V14.01,2013-11-25 13:56:00,
2013-11-25 09:01:00,27.6,7.5,30.50,NW,313,2.0,2.0,42,0.00,,SKC,0.00,VWS V14.01,2013-11-25 14:01:00,
2013-11-25 09:06:00,27.6,7.0,30.50,NW,313,0.0,3.0,41,0.00,,SKC,0.00,VWS V14.01,2013-11-25 14:06:00,
2013-11-25 09:11:00,27.3,6.7,30.50,NW,313,0.0,3.0,41,0.00,,SKC,0.00,VWS V14.01,2013-11-25 14:11:00,
2013-11-25 09:16:00,27.6,7.0,30.50,NW,313,0.0,3.0,41,0.00,,SKC,0.00,VWS V14.01,2013-11-25 14:16:00,
2013-11-25 09:21:00,27.8,6.6,30.50,NW,313,0.0,4.0,40,0.00,,SKC,0.00,VWS V14.01,2013-11-25 14:21:00,
2013-11-25 09:26:00,28.2,7.0,30.50,NW,313,0.0,2.0,40,0.00,,SKC,0.00,VWS V14.01,2013-11-25 14:26:00,
2013-11-25 09:31:00,28.7,7.4,30.49,NW,313,2.0,3.0,40,0.00,,SKC,0.00,VWS V14.01,2013-11-25 14:31:00,
2013-11-25 09:36:00,29.1,6.7,30.49,NW,313,0.0,4.0,38,0.00,,SKC,0.00,VWS V14.01,2013-11-25 14:36:00,
2013-11-25 09:41:00,29.8,6.7,30.49,NW,313,4.0,4.0,37,0.00,,SKC,0.00,VWS V14.01,2013-11-25 14:41:00,
2013-11-25 09:46:00,29.5,5.8,30.49,NW,314,1.0,3.0,36,0.00,,SKC,0.00,VWS V14.01,2013-11-25 14:46:00,
2013-11-25 09:51:00,29.3,5.1,30.49,NW,314,0.0,4.0,35,0.00,,SKC,0.00,VWS V14.01,2013-11-25 14:51:00,
2013-11-25 09:56:00,29.0,6.6,30.49,NW,313,0.0,4.0,38,0.00,,SKC,0.00,VWS V14.01,2013-11-25 14:56:00,
2013-11-25 10:01:00,29.3,6.3,30.50,NW,312,2.0,3.0,37,0.00,,SKC,0.00,VWS V14.01,2013-11-25 15:01:00,
2013-11-25 10:06:00,29.4,6.9,30.50,NW,312,0.0,3.0,38,0.00,,SKC,0.00,VWS V14.01,2013-11-25 15:06:00,
2013-11-25 10:11:00,29.5,5.2,30.50,NW,312,0.0,4.0,35,0.00,,SKC,0.00,VWS V14.01,2013-11-25 15:11:00,
2013-11-25 10:16:00,29.8,5.5,30.50,NW,312,1.0,3.0,35,0.00,,SKC,0.00,VWS V14.01,2013-11-25 15:16:00,
2013-11-25 10:21:00,30.0,4.4,30.50,NW,310,0.0,6.0,33,0.00,,SKC,0.00,VWS V14.01,2013-11-25 15:21:00,
2013-11-25 10:26:00,30.1,4.5,30.50,NW,310,0.0,3.0,33,0.00,,SKC,0.00,VWS V14.01,2013-11-25 15:26:00,
2013-11-25 10:31:00,30.1,3.8,30.50,NW,310,0.0,1.0,32,0.00,,SKC,0.00,VWS V14.01,2013-11-25 15:31:00,
2013-11-25 10:36:00,30.3,5.9,30.49,NW,310,0.0,2.0,35,0.00,,SKC,0.00,VWS V14.01,2013-11-25 15:36:00,
2013-11-25 10:41:00,30.6,4.3,30.49,NW,310,1.0,2.0,32,0.00,,SKC,0.00,VWS V14.01,2013-11-25 15:41:00,
2013-11-25 10:46:00,30.9,5.8,30.49,NW,310,0.0,1.0,34,0.00,,SKC,0.00,VWS V14.01,2013-11-25 15:46:00,
2013-11-25 10:51:00,31.0,3.9,30.48,NW,310,2.0,4.0,31,0.00,,SKC,0.00,VWS V14.01,2013-11-25 15:51:00,
2013-11-25 10:56:00,31.0,5.9,30.48,NW,309,1.0,4.0,34,0.00,,SKC,0.00,VWS V14.01,2013-11-25 15:56:00,
2013-11-25 11:01:00,31.2,5.5,30.48,NW,309,0.0,1.0,33,0.00,,SKC,0.00,VWS V14.01,2013-11-25 16:01:00,
2013-11-25 11:06:00,31.3,6.2,30.48,NW,309,0.0,2.0,34,0.00,,SKC,0.00,VWS V14.01,2013-11-25 16:06:00,
2013-11-25 11:11:00,31.6,7.1,30.48,NW,309,1.0,4.0,35,0.00,,SKC,0.00,VWS V14.01,2013-11-25 16:11:00,
2013-11-25 11:16:00,31.9,6.7,30.48,NW,309,3.0,3.0,34,0.00,,SKC,0.00,VWS V14.01,2013-11-25 16:16:00,
2013-11-25 11:21:00,31.9,6.1,30.48,NW,309,2.0,2.0,33,0.00,,SKC,0.00,VWS V14.01,2013-11-25 16:21:00,
2013-11-25 11:26:00,31.8,6.6,30.48,NW,308,0.0,3.0,34,0.00,,SKC,0.00,VWS V14.01,2013-11-25 16:26:00,
2013-11-25 11:31:00,32.2,6.3,30.48,NW,308,0.0,5.0,33,0.00,,SKC,0.00,VWS V14.01,2013-11-25 16:31:00,
2013-11-25 11:36:00,32.5,7.3,30.46,NW,308,1.0,4.0,34,0.00,,SKC,0.00,VWS V14.01,2013-11-25 16:36:00,
2013-11-25 11:41:00,32.4,7.2,30.46,NW,308,0.0,3.0,34,0.00,,SKC,0.00,VWS V14.01,2013-11-25 16:41:00,
2013-11-25 11:46:00,32.4,7.2,30.46,NW,308,1.0,3.0,34,0.00,,SKC,0.00,VWS V14.01,2013-11-25 16:46:00,
2013-11-25 11:51:00,32.2,7.6,30.45,NW,308,0.0,3.0,35,0.00,,SKC,0.00,VWS V14.01,2013-11-25 16:51:00,
2013-11-25 11:56:00,32.2,8.3,30.45,NW,308,2.0,2.0,36,0.00,,SKC,0.00,VWS V14.01,2013-11-25 16:56:00,
2013-11-25 12:01:00,32.2,7.0,30.45,NW,308,0.0,3.0,34,0.00,,SKC,0.00,VWS V14.01,2013-11-25 17:01:00,
2013-11-25 12:06:00,32.2,6.3,30.45,NW,308,0.0,0.0,33,0.00,,SKC,0.00,VWS V14.01,2013-11-25 17:06:00,
2013-11-25 12:11:00,32.1,6.9,30.45,NW,308,0.0,1.0,34,0.00,,SKC,0.00,VWS V14.01,2013-11-25 17:11:00,
2013-11-25 12:16:00,32.2,7.0,30.45,NW,308,0.0,2.0,34,0.00,,SKC,0.00,VWS V14.01,2013-11-25 17:16:00,
2013-11-25 12:21:00,32.4,7.8,30.44,NW,308,0.0,2.0,35,0.00,,SKC,0.00,VWS V14.01,2013-11-25 17:21:00,
2013-11-25 12:26:00,32.4,5.8,30.44,NW,308,0.0,0.0,32,0.00,,SKC,0.00,VWS V14.01,2013-11-25 17:26:00,
2013-11-25 12:31:00,32.5,6.6,30.44,NW,308,0.0,2.0,33,0.00,,SKC,0.00,VWS V14.01,2013-11-25 17:31:00,
2013-11-25 12:36:00,32.4,5.8,30.43,NW,308,0.0,1.0,32,0.00,,SKC,0.00,VWS V14.01,2013-11-25 17:36:00,
2013-11-25 12:41:00,32.4,5.2,30.43,NW,308,0.0,3.0,31,0.00,,SKC,0.00,VWS V14.01,2013-11-25 17:41:00,
2013-11-25 12:46:00,32.2,7.0,30.43,NW,308,0.0,1.0,34,0.00,,SKC,0.00,VWS V14.01,2013-11-25 17:46:00,
2013-11-25 12:51:00,32.4,5.8,30.42,NW,308,0.0,0.0,32,0.00,,SKC,0.00,VWS V14.01,2013-11-25 17:51:00,
2013-11-25 12:56:00,32.4,6.5,30.42,NW,308,0.0,3.0,33,0.00,,SKC,0.00,VWS V14.01,2013-11-25 17:56:00,
2013-11-25 13:01:00,32.4,7.2,30.42,NW,308,0.0,3.0,34,0.00,,SKC,0.00,VWS V14.01,2013-11-25 18:01:00,
2013-11-25 13:06:00,32.2,6.3,30.42,NW,308,0.0,2.0,33,0.00,,SKC,0.00,VWS V14.01,2013-11-25 18:06:00,
2013-11-25 13:11:00,32.1,6.2,30.42,NW,308,0.0,2.0,33,0.00,,SKC,0.00,VWS V14.01,2013-11-25 18:11:00,
2013-11-25 13:16:00,32.4,7.8,30.42,NW,308,0.0,1.0,35,0.00,,SKC,0.00,VWS V14.01,2013-11-25 18:16:00,
2013-11-25 13:21:00,32.5,7.3,30.42,NW,308,0.0,0.0,34,0.00,,SKC,0.00,VWS V14.01,2013-11-25 18:21:00,
2013-11-25 13:26:00,32.7,5.4,30.42,NW,308,0.0,1.0,31,0.00,,SKC,0.00,VWS V14.01,2013-11-25 18:26:00,
2013-11-25 13:31:00,32.7,6.1,30.42,NW,308,0.0,0.0,32,0.00,,SKC,0.00,VWS V14.01,2013-11-25 18:31:00,
2013-11-25 13:36:00,32.8,6.9,30.41,NW,308,0.0,0.0,33,0.00,,SKC,0.00,VWS V14.01,2013-11-25 18:36:00,
2013-11-25 13:41:00,32.9,8.3,30.41,NW,308,0.0,0.0,35,0.00,,SKC,0.00,VWS V14.01,2013-11-25 18:41:00,
2013-11-25 13:46:00,32.9,7.0,30.41,NW,308,0.0,2.0,33,0.00,,SKC,0.00,VWS V14.01,2013-11-25 18:46:00,
2013-11-25 13:51:00,32.9,8.3,30.40,NW,308,2.0,2.0,35,0.00,,SKC,0.00,VWS V14.01,2013-11-25 18:51:00,
2013-11-25 13:56:00,32.8,7.5,30.40,NW,308,0.0,1.0,34,0.00,,SKC,0.00,VWS V14.01,2013-11-25 18:56:00,
2013-11-25 14:01:00,32.8,7.5,30.40,NW,308,0.0,1.0,34,0.00,,SKC,0.00,VWS V14.01,2013-11-25 19:01:00,
2013-11-25 14:06:00,33.1,6.5,30.41,NW,308,0.0,0.0,32,0.00,,SKC,0.00,VWS V14.01,2013-11-25 19:06:00,
2013-11-25 14:11:00,33.1,7.8,30.41,NW,308,0.0,1.0,34,0.00,,SKC,0.00,VWS V14.01,2013-11-25 19:11:00,
2013-11-25 14:16:00,33.1,7.1,30.41,NW,308,0.0,0.0,33,0.00,,SKC,0.00,VWS V14.01,2013-11-25 19:16:00,
2013-11-25 14:21:00,32.8,6.2,30.40,NW,308,0.0,1.0,32,0.00,,SKC,0.00,VWS V14.01,2013-11-25 19:21:00,
2013-11-25 14:26:00,32.7,6.1,30.40,NW,308,0.0,0.0,32,0.00,,SKC,0.00,VWS V14.01,2013-11-25 19:26:00,
2013-11-25 14:31:00,32.8,6.9,30.40,NW,308,0.0,2.0,33,0.00,,SKC,0.00,VWS V14.01,2013-11-25 19:31:00,
2013-11-25 14:36:00,32.8,7.5,30.41,NW,308,0.0,2.0,34,0.00,,SKC,0.00,VWS V14.01,2013-11-25 19:36:00,
2013-11-25 14:41:00,32.8,7.5,30.41,NW,308,0.0,2.0,34,0.00,,SKC,0.00,VWS V14.01,2013-11-25 19:41:00,
2013-11-25 14:46:00,32.9,7.0,30.41,NW,308,0.0,3.0,33,0.00,,SKC,0.00,VWS V14.01,2013-11-25 19:46:00,
2013-11-25 14:51:00,32.9,8.3,30.40,NW,308,0.0,2.0,35,0.00,,SKC,0.00,VWS V14.01,2013-11-25 19:51:00,
2013-11-25 14:56:00,33.1,7.8,30.40,NW,308,1.0,3.0,34,0.00,,SKC,0.00,VWS V14.01,2013-11-25 19:56:00,
2013-11-25 15:01:00,32.9,7.6,30.40,NW,308,0.0,2.0,34,0.00,,SKC,0.00,VWS V14.01,2013-11-25 20:01:00,
2013-11-25 15:06:00,33.1,7.8,30.40,NW,308,0.0,0.0,34,0.00,,SKC,0.00,VWS V14.01,2013-11-25 20:06:00,
2013-11-25 15:11:00,33.1,6.5,30.40,NW,308,0.0,0.0,32,0.00,,SKC,0.00,VWS V14.01,2013-11-25 20:11:00,
2013-11-25 15:16:00,32.9,8.3,30.40,NW,308,0.0,0.0,35,0.00,,SKC,0.00,VWS V14.01,2013-11-25 20:16:00,
2013-11-25 15:20:00,33.1,7.8,30.40,NW,308,0.0,0.0,34,0.00,,SKC,0.00,VWS V14.01,2013-11-25 20:20:00,
2013-11-25 15:25:00,32.9,8.3,30.40,NW,308,0.0,0.0,35,0.00,,SKC,0.00,VWS V14.01,2013-11-25 20:25:00,
2013-11-25 15:30:00,32.8,6.9,30.40,NW,308,0.0,0.0,33,0.00,,SKC,0.00,VWS V14.01,2013-11-25 20:30:00,
2013-11-25 15:35:00,32.9,8.3,30.40,NW,308,0.0,0.0,35,0.00,,SKC,0.00,VWS V14.01,2013-11-25 20:35:00,
2013-11-25 15:40:00,32.9,8.3,30.40,NW,308,0.0,0.0,35,0.00,,SKC,0.00,VWS V14.01,2013-11-25 20:40:00,
2013-11-25 15:45:00,32.9,8.3,30.40,NW,308,0.0,2.0,35,0.00,,SKC,0.00,VWS V14.01,2013-11-25 20:45:00,
2013-11-25 15:50:00,32.9,8.9,30.40,NW,308,0.0,0.0,36,0.00,,SKC,0.00,VWS V14.01,2013-11-25 20:50:00,
2013-11-25 15:55:00,33.1,9.1,30.40,NW,308,0.0,0.0,36,0.00,,SKC,0.00,VWS V14.01,2013-11-25 20:55:00,
2013-11-25 16:00:00,33.2,9.1,30.40,NW,308,0.0,0.0,36,0.00,,SKC,0.00,VWS V14.01,2013-11-25 21:00:00,
2013-11-25 16:05:00,33.2,9.1,30.40,NW,308,0.0,0.0,36,0.00,,SKC,0.00,VWS V14.01,2013-11-25 21:05:00,
2013-11-25 16:10:00,33.1,9.1,30.40,NW,308,0.0,0.0,36,0.00,,SKC,0.00,VWS V14.01,2013-11-25 21:10:00,
2013-11-25 16:15:00,32.9,8.9,30.40,NW,308,0.0,0.0,36,0.00,,SKC,0.00,VWS V14.01,2013-11-25 21:15:00,
2013-11-25 16:20:00,32.8,8.8,30.41,NW,308,0.0,0.0,36,0.00,,SKC,0.00,VWS V14.01,2013-11-25 21:20:00,
2013-11-25 16:25:00,32.7,8.1,30.41,NW,308,1.0,2.0,35,0.00,,SKC,0.00,VWS V14.01,2013-11-25 21:25:00,
2013-11-25 16:30:00,32.5,7.9,30.41,NW,308,0.0,0.0,35,0.00,,SKC,0.00,VWS V14.01,2013-11-25 21:30:00,
2013-11-25 16:35:00,32.5,9.1,30.40,NW,308,0.0,0.0,37,0.00,,SKC,0.00,VWS V14.01,2013-11-25 21:35:00,
2013-11-25 16:40:00,32.5,7.9,30.40,NW,308,0.0,0.0,35,0.00,,SKC,0.00,VWS V14.01,2013-11-25 21:40:00,
2013-11-25 16:45:00,32.5,9.1,30.40,NW,308,0.0,0.0,37,0.00,,SKC,0.00,VWS V14.01,2013-11-25 21:45:00,
2013-11-25 16:50:00,32.4,7.8,30.39,NW,308,0.0,0.0,35,0.00,,SKC,0.00,VWS V14.01,2013-11-25 21:50:00,
2013-11-25 16:55:00,32.4,9.1,30.39,NW,308,0.0,0.0,37,0.00,,SKC,0.00,VWS V14.01,2013-11-25 21:55:00,
2013-11-25 17:00:00,32.4,9.6,30.39,NW,308,0.0,0.0,38,0.00,,SKC,0.00,VWS V14.01,2013-11-25 22:00:00,
2013-11-25 17:05:00,32.4,9.6,30.40,NW,308,0.0,0.0,38,0.00,,SKC,0.00,VWS V14.01,2013-11-25 22:05:00,
2013-11-25 17:10:00,32.2,10.0,30.40,NW,308,0.0,0.0,39,0.00,,SKC,0.00,VWS V14.01,2013-11-25 22:10:00,
2013-11-25 17:15:00,32.1,8.8,30.40,NW,308,0.0,0.0,37,0.00,,SKC,0.00,VWS V14.01,2013-11-25 22:15:00,
2013-11-25 17:20:00,32.1,9.9,30.39,NW,308,0.0,0.0,39,0.00,,SKC,0.00,VWS V14.01,2013-11-25 22:20:00,
2013-11-25 17:25:00,32.1,8.8,30.39,NW,308,0.0,0.0,37,0.00,,SKC,0.00,VWS V14.01,2013-11-25 22:25:00,
2013-11-25 17:30:00,32.1,9.9,30.39,NW,308,0.0,0.0,39,0.00,,SKC,0.00,VWS V14.01,2013-11-25 22:30:00,
2013-11-25 17:35:00,31.9,8.6,30.39,NW,308,0.0,0.0,37,0.00,,SKC,0.00,VWS V14.01,2013-11-25 22:35:00,
2013-11-25 17:40:00,31.9,8.6,30.39,NW,308,0.0,0.0,37,0.00,,SKC,0.00,VWS V14.01,2013-11-25 22:40:00,
2013-11-25 17:45:00,31.9,10.9,30.39,NW,308,0.0,0.0,41,0.00,,SKC,0.00,VWS V14.01,2013-11-25 22:45:00,
2013-11-25 17:50:00,31.8,10.2,30.39,NW,308,0.0,0.0,40,0.00,,SKC,0.00,VWS V14.01,2013-11-25 22:50:00,
2013-11-25 17:55:00,31.8,10.2,30.39,NW,308,0.0,0.0,40,0.00,,SKC,0.00,VWS V14.01,2013-11-25 22:55:00,
2013-11-25 18:00:00,31.8,11.9,30.39,NW,308,0.0,0.0,43,0.00,,SKC,0.00,VWS V14.01,2013-11-25 23:00:00,
2013-11-25 18:05:00,31.6,8.3,30.39,NW,308,0.0,0.0,37,0.00,,SKC,0.00,VWS V14.01,2013-11-25 23:05:00,
2013-11-25 18:10:00,31.6,10.1,30.39,NW,308,0.0,0.0,40,0.00,,SKC,0.00,VWS V14.01,2013-11-25 23:10:00,
2013-11-25 18:15:00,31.6,11.2,30.39,NW,308,0.0,0.0,42,0.00,,SKC,0.00,VWS V14.01,2013-11-25 23:15:00,
2013-11-25 18:20:00,31.5,11.6,30.40,NW,308,0.0,0.0,43,0.00,,SKC,0.00,VWS V14.01,2013-11-25 23:20:00,
2013-11-25 18:25:00,31.5,10.0,30.40,NW,308,0.0,0.0,40,0.00,,SKC,0.00,VWS V14.01,2013-11-25 23:25:00,
2013-11-25 18:30:00,31.5,10.5,30.40,NW,308,0.0,0.0,41,0.00,,SKC,0.00,VWS V14.01,2013-11-25 23:30:00,
2013-11-25 18:35:00,31.5,9.4,30.39,NW,308,0.0,0.0,39,0.00,,SKC,0.00,VWS V14.01,2013-11-25 23:35:00,
2013-11-25 18:40:00,31.5,10.0,30.39,NW,308,0.0,0.0,40,0.00,,SKC,0.00,VWS V14.01,2013-11-25 23:40:00,
2013-11-25 18:45:00,31.3,9.2,30.39,NW,308,0.0,0.0,39,0.00,,SKC,0.00,VWS V14.01,2013-11-25 23:45:00,
2013-11-25 18:50:00,31.3,8.6,30.40,NW,308,0.0,0.0,38,0.00,,SKC,0.00,VWS V14.01,2013-11-25 23:50:00,
2013-11-25 18:55:00,31.3,10.3,30.40,NW,308,0.0,0.0,41,0.00,,SKC,0.00,VWS V14.01,2013-11-25 23:55:00,
2013-11-25 19:00:00,31.2,9.7,30.40,NW,308,0.0,0.0,40,0.00,,SKC,0.00,VWS V14.01,2013-11-26 00:00:00,
2013-11-25 19:05:00,31.2,10.2,30.40,NW,308,0.0,0.0,41,0.00,,SKC,0.00,VWS V14.01,2013-11-26 00:05:00,
2013-11-25 19:10:00,31.2,11.8,30.40,NW,308,0.0,0.0,44,0.00,,SKC,0.00,VWS V14.01,2013-11-26 00:10:00,
2013-11-25 19:15:00,31.2,12.4,30.40,NW,308,0.0,0.0,45,0.00,,SKC,0.00,VWS V14.01,2013-11-26 00:15:00,
2013-11-25 19:20:00,31.2,11.8,30.39,NW,308,0.0,0.0,44,0.00,,SKC,0.00,VWS V14.01,2013-11-26 00:20:00,
2013-11-25 19:25:00,31.3,12.4,30.39,NW,308,0.0,0.0,45,0.00,,SKC,0.00,VWS V14.01,2013-11-26 00:25:00,
2013-11-25 19:30:00,31.3,11.4,30.39,NW,308,0.0,0.0,43,0.00,,SKC,0.00,VWS V14.01,2013-11-26 00:30:00,
2013-11-25 19:35:00,31.5,11.6,30.39,NW,308,0.0,0.0,43,0.00,,SKC,0.00,VWS V14.01,2013-11-26 00:35:00,
2013-11-25 19:40:00,31.6,13.2,30.39,NW,308,0.0,0.0,46,0.00,,SKC,0.00,VWS V14.01,2013-11-26 00:40:00,
2013-11-25 19:45:00,31.6,12.2,30.39,NW,308,0.0,0.0,44,0.00,,SKC,0.00,VWS V14.01,2013-11-26 00:45:00,
2013-11-25 19:50:00,31.6,11.7,30.39,NW,308,0.0,0.0,43,0.00,,SKC,0.00,VWS V14.01,2013-11-26 00:50:00,
2013-11-25 19:55:00,31.8,12.4,30.39,NW,308,0.0,0.0,44,0.00,,SKC,0.00,VWS V14.01,2013-11-26 00:55:00,
2013-11-25 20:00:00,31.8,12.9,30.39,NW,308,0.0,0.0,45,0.00,,SKC,0.00,VWS V14.01,2013-11-26 01:00:00,
2013-11-25 20:05:00,31.9,11.4,30.39,NW,308,0.0,0.0,42,0.00,,SKC,0.00,VWS V14.01,2013-11-26 01:05:00,
2013-11-25 20:10:00,31.9,11.4,30.39,NW,308,0.0,0.0,42,0.00,,SKC,0.00,VWS V14.01,2013-11-26 01:10:00,
2013-11-25 20:15:00,31.9,12.0,30.39,NW,308,0.0,0.0,43,0.00,,SKC,0.00,VWS V14.01,2013-11-26 01:15:00,
2013-11-25 20:20:00,31.9,12.0,30.37,NW,308,0.0,0.0,43,0.00,,SKC,0.00,VWS V14.01,2013-11-26 01:20:00,
2013-11-25 20:25:00,31.9,13.0,30.37,NW,308,0.0,0.0,45,0.00,,SKC,0.00,VWS V14.01,2013-11-26 01:25:00,
2013-11-25 20:30:00,31.9,13.0,30.37,NW,308,0.0,0.0,45,0.00,,SKC,0.00,VWS V14.01,2013-11-26 01:30:00,
2013-11-25 20:35:00,31.9,13.0,30.38,NW,308,0.0,0.0,45,0.00,,SKC,0.00,VWS V14.01,2013-11-26 01:35:00,
2013-11-25 20:40:00,31.8,12.9,30.38,NW,308,0.0,0.0,45,0.00,,SKC,0.00,VWS V14.01,2013-11-26 01:40:00,
2013-11-25 20:45:00,31.8,13.4,30.38,NW,308,0.0,0.0,46,0.00,,SKC,0.00,VWS V14.01,2013-11-26 01:45:00,
2013-11-25 20:50:00,31.8,12.9,30.37,NW,308,0.0,0.0,45,0.00,,SKC,0.00,VWS V14.01,2013-11-26 01:50:00,
2013-11-25 20:55:00,31.6,12.7,30.37,NW,308,0.0,0.0,45,0.00,,SKC,0.00,VWS V14.01,2013-11-26 01:55:00,
2013-11-25 21:00:00,31.6,12.7,30.37,NW,308,0.0,0.0,45,0.00,,SKC,0.00,VWS V14.01,2013-11-26 02:00:00,
2013-11-25 21:05:00,31.5,12.1,30.35,NW,308,0.0,0.0,44,0.00,,SKC,0.00,VWS V14.01,2013-11-26 02:05:00,
2013-11-25 21:10:00,31.6,13.2,30.35,NW,308,0.0,0.0,46,0.00,,SKC,0.00,VWS V14.01,2013-11-26 02:10:00,
2013-11-25 21:15:00,31.6,12.7,30.35,NW,308,0.0,0.0,45,0.00,,SKC,0.00,VWS V14.01,2013-11-26 02:15:00,
2013-11-25 21:20:00,31.6,14.2,30.35,NW,308,0.0,0.0,48,0.00,,SKC,0.00,VWS V14.01,2013-11-26 02:20:00,
2013-11-25 21:25:00,31.6,12.7,30.35,NW,308,0.0,0.0,45,0.00,,SKC,0.00,VWS V14.01,2013-11-26 02:25:00,
2013-11-25 21:30:00,31.6,13.7,30.35,NW,308,0.0,0.0,47,0.00,,SKC,0.00,VWS V14.01,2013-11-26 02:30:00,
2013-11-25 21:35:00,31.6,13.7,30.35,NW,308,0.0,0.0,47,0.00,,SKC,0.00,VWS V14.01,2013-11-26 02:35:00,
2013-11-25 21:40:00,31.6,13.7,30.35,NW,308,0.0,0.0,47,0.00,,SKC,0.00,VWS V14.01,2013-11-26 02:40:00,
2013-11-25 21:45:00,31.6,13.7,30.35,NW,308,0.0,0.0,47,0.00,,SKC,0.00,VWS V14.01,2013-11-26 02:45:00,
2013-11-25 21:50:00,31.6,13.2,30.36,NW,308,0.0,0.0,46,0.00,,SKC,0.00,VWS V14.01,2013-11-26 02:50:00,
2013-11-25 21:55:00,31.8,14.4,30.36,NW,308,0.0,0.0,48,0.00,,SKC,0.00,VWS V14.01,2013-11-26 02:55:00,
2013-11-25 22:00:00,31.9,14.9,30.36,NW,308,0.0,0.0,49,0.00,,SKC,0.00,VWS V14.01,2013-11-26 03:00:00,
2013-11-25 22:05:00,31.9,14.4,30.35,NW,308,0.0,0.0,48,0.00,,SKC,0.00,VWS V14.01,2013-11-26 03:05:00,
2013-11-25 22:10:00,31.9,13.0,30.35,NW,308,0.0,0.0,45,0.00,,SKC,0.00,VWS V14.01,2013-11-26 03:10:00,
2013-11-25 22:15:00,31.9,13.5,30.35,NW,308,0.0,0.0,46,0.00,,SKC,0.00,VWS V14.01,2013-11-26 03:15:00,
2013-11-25 22:20:00,31.9,14.0,30.34,NW,308,0.0,0.0,47,0.00,,SKC,0.00,VWS V14.01,2013-11-26 03:20:00,
2013-11-25 22:25:00,31.9,14.4,30.34,NW,308,0.0,0.0,48,0.00,,SKC,0.00,VWS V14.01,2013-11-26 03:25:00,
2013-11-25 22:30:00,31.8,16.2,30.34,NW,308,0.0,0.0,52,0.00,,SKC,0.00,VWS V14.01,2013-11-26 03:30:00,
2013-11-25 22:35:00,31.6,16.5,30.33,NW,308,0.0,0.0,53,0.00,,SKC,0.00,VWS V14.01,2013-11-26 03:35:00,
2013-11-25 22:40:00,31.6,16.0,30.33,NW,308,1.0,2.0,52,0.00,,SKC,0.00,VWS V14.01,2013-11-26 03:40:00,
2013-11-25 22:45:00,31.6,21.2,30.33,NW,308,2.0,2.0,65,0.00,,SKC,0.00,VWS V14.01,2013-11-26 03:45:00,
2013-11-25 22:50:00,31.0,22.0,30.33,NW,308,0.0,3.0,69,0.00,,SKC,0.00,VWS V14.01,2013-11-26 03:50:00,
2013-11-25 22:55:00,30.6,22.3,30.33,NW,308,0.0,4.0,71,0.00,,SKC,0.00,VWS V14.01,2013-11-26 03:55:00,
2013-11-25 23:00:00,30.4,23.4,30.33,NW,308,0.0,1.0,75,0.00,,SKC,0.00,VWS V14.01,2013-11-26 04:00:00,
2013-11-25 23:05:00,30.3,24.3,30.33,NW,308,0.0,0.0,78,0.00,,SKC,0.00,VWS V14.01,2013-11-26 04:05:00,
2013-11-25 23:10:00,30.1,23.5,30.33,NW,308,0.0,0.0,76,0.00,,SKC,0.00,VWS V14.01,2013-11-26 04:10:00,
2013-11-25 23:15:00,30.0,24.3,30.33,NW,308,0.0,0.0,79,0.00,,SKC,0.00,VWS V14.01,2013-11-26 04:15:00,
2013-11-25 23:20:00,29.8,25.0,30.33,NW,308,0.0,0.0,82,0.00,,SKC,0.00,VWS V14.01,2013-11-26 04:20:00,
2013-11-25 23:25:00,29.7,24.9,30.33,NW,308,0.0,0.0,82,0.00,,SKC,0.00,VWS V14.01,2013-11-26 04:25:00,
2013-11-25 23:30:00,29.7,25.2,30.33,NW,308,0.0,0.0,83,0.00,,SKC,0.00,VWS V14.01,2013-11-26 04:30:00,
2013-11-25 23:35:00,29.5,25.3,30.32,NW,308,0.0,0.0,84,0.00,,SKC,0.00,VWS V14.01,2013-11-26 04:35:00,
2013-11-25 23:40:00,29.5,25.3,30.32,NW,308,0.0,0.0,84,0.00,,SKC,0.00,VWS V14.01,2013-11-26 04:40:00,
2013-11-25 23:45:00,29.5,25.8,30.32,NW,308,0.0,0.0,86,0.00,,SKC,0.00,VWS V14.01,2013-11-26 04:45:00,
2013-11-25 23:49:00,29.5,25.6,30.31,NW,308,0.0,0.0,85,0.00,,SKC,0.00,VWS V14.01,2013-11-26 04:49:00,
2013-11-25 23:54:00,29.5,25.8,30.31,NW,308,0.0,0.0,86,0.00,,SKC,0.00,VWS V14.01,2013-11-26 04:54:00,
2013-11-25 23:59:00,29.7,26.3,30.31,NW,308,0.0,0.0,87,0.00,,SKC,0.00,VWS V14.01,2013-11-26 04:59:00,